Saint Simons Island, GA

4:22 AM EST on December 07, 2019 (GMT -0500)
McKinnon

Weather History for KSSI - October, 2019

Change the Weather History Date:

Sunday, October 6, 2019

  Actual Average Record
Temperature  
Mean Temperature 82 °F 73 °F  
Max Temperature 87 °F 80 °F 94 °F (1951)
Min Temperature 76 °F 66 °F 53 °F (1979)
Degree Days  
Heating Degree Days 0 0  
Month to date heating degree days 0 0  
Since 1 July heating degree days 0 0  
Cooling Degree Days 17 8  
Month to date cooling degree days 101 55  
Year to date cooling degree days 3088 2426  
Growing Degree Days 30 (Base 50)    
Moisture  
Dew Point 68 °F    
Average Humidity 66    
Maximum Humidity 74    
Minimum Humidity 58    
Precipitation  
Precipitation 0.05 in 0.18 in 2.15 in (1993)
Month to date precipitation 0.06 1.14  
Year to date precipitation 27.16 37.01  
Snow  
Snow 0.00 in - 0.00 in ()
Month to date snowfall 0.0  
Since 1 July snowfall 0.0  
Since 1 September snowfall 0.0  
Snow Depth 0.00 in    
Sea Level Pressure  
Sea Level Pressure 30.10 in    
Wind  
Wind Speed 14 mph (ENE)    
Max Wind Speed 24 mph    
Max Gust Speed 35 mph    
Visibility 10 miles    
Events Rain    
T = Trace of Precipitation, MM = Missing Value Source: NWS Daily Summary

Daily Weather History Graph

Daily Weather History Graph

Search for Another Location

Airport or City:

Astronomy

Oct. 06, 2019 Rise Set
Actual Time 7:22 AM EDT 7:04 PM EDT
Civil Twilight 6:58 AM EDT 7:28 PM EDT
Nautical Twilight 6:29 AM EDT 7:56 PM EDT
Astronomical Twilight 6:01 AM EDT 8:24 PM EDT
Moon 3:14 PM EDT (10/6) 12:48 AM EDT (10/6)
Length of Visible Light 12h 30m
Length of Day
11h 42m
First Quarter, 59% of the Moon is Illuminated
Oct 6
First Quarter
Oct 13
Full
Oct 21
Last Quarter
Oct 27
New
Nov 4
First Quarter

Hourly Weather History & Observations

Time (EDT) Temp. Heat Index Dew Point Humidity Pressure Visibility Wind Dir Wind Speed Gust Speed Precip Events Conditions
12:01 AM 77.0 °F - 71.1 °F 82% 30.09 in 5.0 mi East 17.3 mph 31.1 mph 0.01 in Rain Light Rain
12:53 AM 80.1 °F 82.7 °F 68.0 °F 67% 30.09 in 10.0 mi East 16.1 mph - 0.01 in   Clear
1:53 AM 80.1 °F 81.9 °F 64.9 °F 60% 30.09 in 10.0 mi East 15.0 mph 23.0 mph N/A   Partly Cloudy
2:53 AM 81.0 °F 83.3 °F 66.9 °F 62% 30.08 in 10.0 mi East 12.7 mph - N/A   Clear
3:53 AM 81.0 °F 84.1 °F 69.1 °F 67% 30.07 in 10.0 mi East 11.5 mph - N/A   Mostly Cloudy
4:17 AM 81.0 °F 84.4 °F 70.0 °F 69% 30.06 in 10.0 mi East 13.8 mph - N/A   Overcast
4:53 AM 80.1 °F 83.8 °F 72.0 °F 76% 30.07 in 10.0 mi ENE 11.5 mph - N/A   Overcast
5:53 AM 80.1 °F 82.1 °F 66.0 °F 62% 30.08 in 10.0 mi East 17.3 mph 23.0 mph 0.00 in   Mostly Cloudy
6:53 AM 81.0 °F 83.8 °F 68.0 °F 65% 30.09 in 10.0 mi East 13.8 mph - N/A   Overcast
7:53 AM 81.0 °F 83.3 °F 66.9 °F 62% 30.11 in 10.0 mi North - - N/A   Mostly Cloudy
8:53 AM 82.0 °F 84.9 °F 68.0 °F 62% 30.12 in 10.0 mi ENE 13.8 mph 19.6 mph N/A   Overcast
9:53 AM 84.0 °F 87.8 °F 69.1 °F 61% 30.13 in 10.0 mi ENE 15.0 mph - N/A   Mostly Cloudy
10:53 AM 84.0 °F 87.8 °F 69.1 °F 61% 30.13 in 10.0 mi ENE 15.0 mph 24.2 mph N/A   Overcast
11:53 AM 84.9 °F 89.4 °F 70.0 °F 61% 30.13 in 10.0 mi ENE 15.0 mph 19.6 mph N/A   Mostly Cloudy
12:53 PM 81.0 °F 83.8 °F 68.0 °F 65% 30.14 in 8.0 mi East 19.6 mph 26.5 mph 0.00 in   Overcast
1:53 PM 77.0 °F - 71.1 °F 82% 30.11 in 6.0 mi NE 13.8 mph 28.8 mph 0.05 in Rain Light Rain
2:53 PM 84.9 °F 89.4 °F 70.0 °F 61% 30.09 in 10.0 mi East 16.1 mph - 0.00 in   Scattered Clouds
3:53 PM 82.9 °F 86.5 °F 69.1 °F 63% 30.09 in 10.0 mi ENE 9.2 mph 19.6 mph N/A   Overcast
4:53 PM 82.0 °F 85.5 °F 69.1 °F 65% 30.08 in 10.0 mi East 16.1 mph 27.6 mph 0.00 in   Overcast
5:53 PM 82.9 °F 85.8 °F 68.0 °F 60% 30.08 in 10.0 mi ENE 16.1 mph 25.3 mph N/A   Mostly Cloudy
6:53 PM 81.0 °F 82.7 °F 64.9 °F 58% 30.08 in 10.0 mi ENE 17.3 mph 24.2 mph N/A   Clear
7:53 PM 80.1 °F 81.9 °F 64.9 °F 60% 30.09 in 10.0 mi ENE 13.8 mph 23.0 mph N/A   Clear
8:53 PM 80.1 °F 82.1 °F 66.0 °F 62% 30.10 in 10.0 mi ENE 11.5 mph 18.4 mph N/A   Scattered Clouds
9:53 PM 80.1 °F 82.3 °F 66.9 °F 64% 30.10 in 10.0 mi ENE 12.7 mph 21.9 mph N/A   Scattered Clouds
10:53 PM 80.1 °F 82.3 °F 66.9 °F 64% 30.10 in 10.0 mi East 12.7 mph - N/A   Scattered Clouds
11:53 PM 80.1 °F 82.9 °F 69.1 °F 69% 30.08 in 10.0 mi East 15.0 mph 23.0 mph N/A   Scattered Clouds